Location: Ithaca
(42.4410°N, 76.4970°W)
Time: 18:18:27
(UTC-04:00)

ISS - Visible Passes

Search period start: 01 October 2016 00:00
Search period end: 11 October 2016 00:00
Orbit: 400 x 409 km, 51.6° (Epoch: 02 October)

Date Brightness Start Highest point End Pass type
(mag) Time Alt. Az. Time Alt. Az. Time Alt. Az.
01 Oct -3.4 19:42:13 10° SW 19:45:28 88° SE 19:48:06 15° ENE visible
01 Oct -0.3 21:19:40 10° WNW 21:20:47 16° NW 21:20:47 16° NW visible
02 Oct -1.7 20:27:03 10° W 20:29:58 29° NNW 20:30:52 25° N visible
03 Oct -2.3 19:34:33 10° WSW 19:37:40 43° NNW 19:40:49 10° NE visible
03 Oct -0.3 21:12:29 10° NW 21:13:32 15° NW 21:13:32 15° NW visible
04 Oct -1.2 20:19:49 10° WNW 20:22:21 20° NNW 20:23:26 17° NNE visible
05 Oct -1.5 19:27:09 10° W 19:29:57 26° NNW 19:32:46 10° NE visible
05 Oct -0.3 21:05:06 10° NW 21:05:57 13° NNW 21:05:57 13° NNW visible
06 Oct -1.0 20:12:33 10° NW 20:14:46 17° N 20:15:45 15° NNE visible
07 Oct -1.1 19:19:52 10° WNW 19:22:18 19° NNW 19:24:44 10° NE visible
07 Oct -0.4 20:57:21 10° NW 20:58:10 14° NNW 20:58:10 14° NNW visible
08 Oct -1.1 20:05:01 10° NW 20:07:10 16° N 20:07:54 15° NNE visible
09 Oct -1.0 19:12:29 10° NW 19:14:39 16° N 19:16:49 10° NE visible
09 Oct -0.6 20:49:18 10° NW 20:50:17 16° NNW 20:50:17 16° NNW visible
10 Oct -1.4 19:57:07 10° NW 19:59:30 18° N 20:00:01 18° NNE visible
